Tracking 25193 objects as of 18-Jan-2022
HD Live streaming from Space Station
objects crossing your sky now

STARLINK-1594

Track STARLINK-1594 now!
10-day predictions
STARLINK-1594 is classified as:


NORAD ID: 46140
Int'l Code: 2020-057Z
Perigee: 552.8 km
Apogee: 555.9 km
Inclination: 53.1 °
Period: 95.6 minutes
Semi major axis: 6925 km
RCS: Unknown
Launch date: August 18, 2020
Source: United States (US)
Launch site: AIR FORCE EASTERN TEST RANGE (AFETR)
aabbcc
Your satellite tracking list
Your tracking list is empty




NASA's NSSDC Master Catalog

Two Line Element Set (TLE):
1 46140U 20057Z   22017.80177351 -.00001915  00000-0 -10968-3 0  9998
2 46140  53.0527 223.7478 0002255  69.4384 290.6846 15.06392130 79416
Source of the keplerian elements: AFSPC